GEFSMA_500_meanwind_216.txt.gz
Wind_Speed
3 3 3 4 4 4 4 4 3 3 3 3 3 3 3 3 3 3 3 3 4 4 5 5 6 6 7 7 8 8 8 8 8 8 8 8 8 8 7 7 7 7 7
1 2 3 3 4 4 4 4 4 3 3 3 3 3 3 3 3 3 3 4 4 4 5 5 6 7 7 7 7 8 8 8 8 9 9 9 9 9 8 8 9 9 9
1 1 2 3 4 4 4 4 4 4 3 3 3 4 4 3 4 4 4 4 4 5 5 6 7 7 7 7 8 8 8 9 9 9 9 10 10 10 10 10 10 10 11
1 1 2 3 3 4 4 4 5 5 4 4 5 5 4 4 4 4 5 5 5 5 6 6 7 7 7 7 8 8 9 9 10 10 11 11 11 11 12 12 12 12 12
2 3 2 2 3 3 4 5 5 6 6 6 5 5 6 5 5 6 6 5 5 6 7 7 8 8 8 8 9 9 9 10 10 11 12 11 11 12 13 13 14 14 14
3 4 3 3 3 4 4 5 6 7 6 6 6 7 7 7 7 7 6 6 6 6 7 7 8 8 8 9 9 10 10 10 10 11 11 12 12 12 13 14 14 15 15
3 4 4 4 3 4 5 6 6 6 6 7 7 7 7 8 7 7 8 8 7 7 8 8 8 8 8 8 9 10 10 10 10 11 11 12 13 13 13 13 14 14 15
3 4 5 4 4 4 5 5 5 5 6 6 7 7 8 7 7 8 8 9 9 9 9 9 9 9 9 9 10 10 10 10 10 10 10 11 12 13 14 14 14 14 14
4 4 5 5 5 5 5 6 6 6 6 6 7 8 8 8 9 9 9 9 9 9 10 10 10 10 10 11 11 12 12 11 11 11 11 12 12 13 13 14 15 16 16
6 6 6 6 6 6 6 7 7 7 7 7 8 8 9 9 9 9 9 9 9 9 10 10 11 11 11 11 12 12 13 13 13 13 13 13 13 13 14 14 15 15 15
7 7 7 7 7 8 7 7 7 7 7 8 8 9 9 10 10 9 9 9 9 9 10 10 10 11 11 12 12 13 13 13 13 13 14 14 14 15 15 15 16 16 16
8 9 9 8 9 9 9 8 8 8 8 9 9 9 9 9 10 10 10 11 10 10 10 10 10 10 11 12 13 13 14 14 14 14 15 15 16 16 17 17 18 18 18
11 11 11 10 10 10 10 10 10 10 9 10 10 11 11 10 10 10 11 11 11 11 11 11 11 11 12 12 13 14 15 15 16 16 16 17 17 18 18 18 18 19 18
13 13 13 13 12 12 12 12 12 11 11 12 11 12 12 12 12 12 12 12 12 12 12 12 12 12 12 13 13 14 15 16 17 17 18 18 18 19 19 19 18 18 17
16 16 15 14 14 14 14 14 14 13 13 13 13 13 14 14 14 14 14 14 14 14 14 14 13 14 14 15 15 15 15 16 16 17 17 18 19 19 19 19 19 18 19
17 18 19 17 17 16 16 15 14 14 14 14 14 15 15 15 15 15 16 16 16 16 15 16 15 15 15 16 16 17 17 17 17 18 18 19 19 20 19 19 19 20 20
20 20 18 19 18 18 17 17 16 16 16 16 16 16 16 16 16 17 17 18 18 18 18 17 17 17 18 18 18 18 18 19 19 19 20 20 20 20 20 21 21 21 21
23 22 21 20 19 19 19 18 18 17 17 17 18 17 17 18 18 18 19 19 19 19 19 19 19 19 19 20 21 21 20 20 20 21 21 21 21 21 21 21 21 22 22
24 23 22 21 21 21 20 19 19 19 19 20 19 19 19 20 20 21 21 21 21 21 21 21 21 21 22 22 23 23 23 22 22 22 22 22 22 22 22 21 22 22 22
23 24 23 23 23 22 21 20 21 21 21 22 22 22 22 22 22 23 23 23 23 22 23 23 23 23 23 23 24 24 25 24 24 24 23 23 23 23 22 22 23 23 23
25 25 25 24 24 24 23 23 23 23 24 24 24 24 24 24 24 24 24 25 25 24 24 24 25 25 25 26 26 26 26 26 25 24 25 25 25 24 24 23 23 23 24
28 27 26 25 25 25 25 25 25 25 25 25 24 24 24 25 26 27 27 26 26 27 26 26 26 26 26 27 27 27 27 27 26 26 26 26 26 25 25 24 24 25 25
30 30 29 28 28 28 28 28 27 27 26 25 25 26 27 27 28 28 29 29 29 29 29 28 28 27 27 28 28 28 28 28 28 27 27 27 26 26 26 25 25 25 26
32 32 31 30 30 31 30 30 29 29 28 27 28 28 29 30 30 30 30 30 30 30 30 29 29 29 29 29 29 29 29 30 30 29 28 28 28 27 27 27 27 27 26
33 34 33 33 32 32 32 32 31 31 29 29 30 30 31 31 31 31 31 31 30 30 30 31 31 31 31 31 31 30 30 30 30 30 30 30 29 28 27 27 27 27 27
35 35 35 35 34 33 33 33 33 32 31 31 32 32 32 32 32 33 32 33 32 32 32 32 32 33 33 32 32 32 31 31 31 30 30 30 30 29 28 28 28 28 28

GEFSMA_500_meanwind_222.txt.gz
Wind_Speed
4 5 5 5 4 4 3 3 3 3 3 3 2 2 2 3 3 3 4 4 5 5 5 5 6 6 6 6 6 6 7 7 7 7 8 8 8 8 8 9 9 9 9
4 4 4 4 4 4 4 3 3 3 4 3 3 3 2 3 4 4 4 5 5 5 5 6 6 6 6 6 6 7 7 7 7 7 8 9 9 9 9 10 10 11 11
3 3 3 3 4 4 4 4 3 3 4 3 3 3 3 4 4 5 5 6 5 5 6 6 7 6 6 6 6 6 7 7 8 8 9 9 9 9 10 11 11 12 12
4 3 2 2 3 4 4 4 4 3 4 4 4 3 4 4 5 5 6 6 6 6 6 7 7 7 6 6 6 6 7 8 9 9 10 10 10 10 11 11 12 13 13
3 2 2 1 2 3 3 3 4 4 4 4 4 4 4 5 5 5 6 7 7 7 7 7 7 7 7 7 7 8 8 8 9 10 10 10 11 11 12 12 13 13 14
2 2 1 0 1 2 3 4 4 4 5 5 5 5 5 5 6 6 6 7 7 7 7 8 8 8 8 8 8 8 9 9 9 10 10 10 11 11 12 12 12 13 13
2 2 1 1 1 2 3 4 4 5 5 6 6 6 6 6 6 7 6 7 8 8 8 9 9 9 9 9 9 9 9 9 10 10 10 11 11 11 12 12 13 13 13
3 2 2 2 2 2 2 3 4 4 5 6 6 7 7 7 8 8 8 8 8 9 9 9 10 10 10 10 10 10 10 10 10 11 11 11 12 12 12 13 14 14 14
2 2 2 2 3 3 3 3 3 4 6 6 7 8 8 9 8 9 9 9 9 9 9 9 10 11 11 12 12 12 11 11 11 12 12 13 13 12 12 13 14 14 15
2 2 3 3 4 4 5 5 5 5 6 7 8 9 9 9 9 9 9 9 9 10 10 10 11 12 12 13 13 13 13 13 13 13 14 14 14 14 14 14 14 14 15
4 4 5 5 5 6 6 7 7 7 7 8 8 8 9 9 9 9 9 9 9 10 10 11 12 12 12 13 14 14 14 15 14 15 15 14 14 15 15 16 16 16 16
6 6 6 6 6 7 7 8 8 8 9 9 9 10 10 10 9 9 9 9 9 9 9 10 11 12 13 13 13 13 14 14 15 16 15 15 15 15 16 16 17 17 17
7 7 8 8 8 8 9 9 10 10 10 11 12 12 11 11 10 10 10 9 10 10 11 11 11 12 12 12 13 13 13 13 14 15 16 16 16 17 17 17 18 18 17
10 9 9 9 9 9 10 10 11 11 12 13 13 13 13 12 11 12 12 11 11 12 12 12 13 13 13 13 13 14 13 13 13 14 15 15 16 16 16 17 17 17 18
11 11 11 11 10 11 11 11 11 11 12 13 13 14 15 14 14 13 13 13 13 13 13 13 13 14 14 14 14 14 14 14 15 15 16 16 16 17 17 17 17 17 17
14 13 13 13 13 14 14 13 13 13 13 14 14 15 15 15 15 14 14 14 14 14 14 14 15 14 15 15 15 16 16 16 16 16 17 17 17 17 17 18 17 17 18
17 17 17 17 16 16 15 15 15 16 16 16 16 16 16 17 16 15 15 15 15 16 15 15 16 16 16 17 17 17 17 18 18 18 18 17 18 18 18 18 18 18 18
21 20 20 19 19 18 17 17 18 18 18 17 17 17 17 18 18 17 17 17 18 18 17 17 17 18 18 18 19 19 19 20 20 20 19 19 19 19 20 19 19 19 20
22 21 21 21 21 21 20 20 20 20 19 19 19 18 18 18 18 18 18 19 19 19 19 18 18 19 19 19 20 20 20 21 21 21 21 21 21 21 21 21 20 20 20
23 22 23 23 23 23 23 23 22 21 21 20 20 20 19 19 20 20 19 20 20 21 20 20 20 20 20 21 22 22 22 21 22 22 22 22 22 22 22 22 22 22 22
26 26 26 25 25 25 24 24 24 23 22 22 21 21 21 21 21 21 21 21 22 22 21 21 21 21 22 22 24 24 25 24 23 24 24 24 24 24 24 24 23 23 23
28 28 28 28 28 28 26 25 25 25 25 23 23 23 23 22 22 22 22 23 23 23 23 23 23 23 23 24 25 25 26 26 25 26 26 26 25 25 25 25 25 24 24
30 30 30 29 29 28 28 28 27 27 27 26 26 25 25 24 25 24 24 24 24 25 25 25 25 25 25 25 26 26 26 27 27 28 28 27 26 26 27 27 26 26 26
31 31 31 31 33 33 31 30 29 29 29 28 28 28 27 27 27 27 26 26 26 27 27 27 27 27 27 26 26 26 27 27 28 28 28 28 27 28 28 28 28 28 27
33 33 33 34 35 34 33 32 31 30 31 31 30 30 29 29 29 29 29 29 28 28 29 29 28 28 29 29 28 28 28 28 28 28 28 28 28 29 29 29 29 29 29
36 36 35 35 35 35 34 34 32 31 31 31 32 32 32 32 31 31 31 30 30 30 30 30 30 30 30 31 31 30 30 29 29 29 30 29 29 30 30 30 30 30 30

GEFSMA_500_meanwind_228.txt.gz
Wind_Speed
3 3 4 4 3 3 3 3 3 2 3 3 3 3 3 3 3 3 3 4 5 5 6 7 7 7 7 8 8 8 8 8 8 9 8 9 9 9 9 9 9 9 9
3 3 3 3 3 3 3 4 4 3 3 3 3 3 3 3 4 4 4 5 6 7 7 8 8 8 8 8 8 9 9 9 9 8 9 9 10 10 10 10 10 10 10
4 2 2 2 3 3 4 4 4 4 3 3 3 3 3 4 5 5 6 6 7 8 8 8 8 8 9 9 9 9 9 9 9 9 10 10 11 11 11 11 11 11 11
3 2 1 2 2 3 3 4 3 4 4 4 4 4 4 5 5 5 6 7 7 7 8 8 8 9 9 9 9 9 10 10 10 10 11 11 12 12 12 12 12 12 12
2 0 1 2 2 3 4 4 4 5 5 5 5 5 5 5 5 6 6 7 7 8 8 9 9 9 10 10 10 10 11 11 11 11 11 11 12 12 12 12 12 13 12
0 1 1 2 2 3 4 5 5 5 5 5 5 6 6 6 7 7 7 8 8 9 9 9 10 10 10 10 10 11 11 12 12 12 12 11 11 12 12 12 13 13 13
1 1 2 2 2 3 3 4 5 5 6 6 6 6 7 8 8 9 9 9 9 9 10 10 10 10 11 11 11 12 12 12 12 12 12 12 12 13 13 13 13 13 13
2 2 3 4 4 4 4 5 6 6 6 7 7 7 8 9 9 10 10 10 10 10 11 11 10 10 11 12 12 12 12 13 13 13 13 14 14 14 14 14 15 15 15
3 4 4 5 6 6 6 6 7 7 8 8 8 9 9 9 10 10 11 12 12 12 12 12 11 11 12 13 13 14 14 15 15 15 15 16 16 16 15 15 16 16 16
5 6 6 6 7 7 7 7 7 8 8 8 9 9 9 10 10 10 10 11 11 11 11 11 11 12 13 13 13 13 14 15 16 16 16 16 16 16 16 17 17 16 16
8 8 8 8 8 8 8 9 9 9 9 9 9 10 10 10 10 11 11 11 12 12 12 12 12 13 13 13 14 14 14 14 15 16 16 16 16 16 16 16 16 16 16
10 10 10 10 10 10 10 10 10 10 11 11 11 11 12 12 12 12 12 12 13 13 13 13 13 14 14 14 14 14 14 15 15 15 15 15 15 16 16 16 16 16 16
12 12 11 11 11 12 12 11 11 11 12 12 12 12 12 13 13 13 13 13 14 14 15 15 15 14 14 15 15 15 16 16 15 15 15 15 15 15 16 16 16 16 16
13 13 13 13 13 14 13 13 12 12 13 13 13 13 13 13 14 14 15 15 15 15 16 16 16 17 17 17 16 16 16 16 16 15 15 15 15 16 16 16 16 16 16
15 15 15 15 16 16 16 15 15 14 14 14 14 14 14 14 15 16 16 16 16 16 16 17 18 18 18 18 18 17 17 17 17 17 17 16 16 17 17 17 17 17 17
17 17 18 18 18 17 17 17 16 16 15 15 15 15 16 16 17 17 17 17 17 16 17 18 18 19 20 20 19 19 19 18 18 18 18 18 17 17 18 18 17 17 17
19 19 19 19 19 18 17 17 17 17 17 17 17 17 18 18 18 18 18 18 18 18 18 18 19 20 20 21 20 20 20 19 19 19 19 19 19 19 20 20 19 19 19
21 21 21 21 20 20 20 19 19 19 19 19 19 19 19 20 20 19 19 19 20 20 19 19 19 19 20 20 20 21 21 21 20 20 21 21 21 22 21 21 21 21 21
23 23 23 23 22 21 21 21 22 22 22 22 22 22 21 21 21 21 21 21 21 21 21 21 20 20 20 20 19 20 21 21 22 23 23 23 23 23 23 23 23 22 23
26 26 25 24 23 23 23 24 25 25 24 24 24 24 24 23 22 23 23 23 23 22 22 22 21 21 21 20 20 20 21 23 24 24 25 25 25 25 25 25 24 24 24
28 29 28 27 26 25 25 26 27 27 26 26 26 27 26 25 25 25 25 25 25 24 24 23 23 22 22 22 22 23 23 23 24 25 26 27 27 27 27 26 26 26 26
30 29 29 29 28 27 28 29 29 28 28 28 28 28 27 27 27 27 27 27 27 26 25 25 25 24 24 24 24 25 25 25 25 26 27 27 27 28 28 28 28 28 28
31 30 30 30 30 30 31 31 32 31 31 31 31 30 29 29 29 30 29 29 28 28 28 27 26 26 26 27 27 27 27 27 27 27 27 28 28 29 29 29 29 29 29
31 31 31 32 33 33 33 34 34 33 33 33 33 34 32 31 32 31 31 31 31 31 31 30 29 28 29 29 29 29 29 29 29 29 29 29 29 29 30 30 30 29 29
33 33 33 33 34 34 34 33 34 34 34 35 34 34 34 33 33 33 33 33 33 33 33 32 31 31 31 31 31 31 31 30 30 30 30 30 30 30 30 30 30 30 30
34 34 34 34 34 34 34 34 34 35 35 35 35 35 35 35 35 35 34 33 34 34 34 33 33 34 33 33 33 33 33 32 32 31 31 31 32 31 31 30 30 30 30

GEFSMA_500_meanwind_234.txt.gz
Wind_Speed
5 5 4 4 3 4 4 4 4 4 4 3 3 3 3 4 4 4 4 4 5 5 6 6 6 6 7 8 8 8 9 9 10 10 10 9 10 10 10 10 10 10 10
5 4 4 3 3 3 4 4 4 4 4 4 4 4 4 5 5 6 6 6 6 6 7 7 7 8 8 8 9 9 9 9 10 10 10 10 10 10 10 11 10 10 10
5 5 4 3 2 2 3 4 4 4 5 5 5 5 5 5 5 6 6 6 6 7 7 8 8 8 9 9 10 9 9 9 10 10 9 9 9 10 10 11 11 12 12
4 4 4 3 2 2 3 3 4 5 5 5 6 6 6 6 6 6 6 6 7 7 8 8 8 9 9 9 10 10 10 10 10 10 10 10 11 11 11 12 12 11 12
3 3 3 2 2 2 2 4 4 5 5 5 6 7 7 7 7 7 7 7 8 8 8 8 9 9 10 10 11 10 11 11 11 12 12 11 12 12 12 12 12 12 12
2 2 1 2 2 3 3 3 4 4 4 5 6 6 7 7 8 9 9 9 9 9 9 9 10 10 11 11 11 11 11 10 11 12 12 12 12 12 12 13 13 13 14
0 1 2 2 3 4 3 4 4 4 5 5 6 6 7 7 8 9 9 9 10 10 10 10 11 11 11 11 10 10 10 11 11 11 11 12 13 14 14 14 14 14 15
1 2 3 4 4 5 5 5 5 5 6 6 7 7 8 8 7 8 9 10 11 11 11 12 11 11 11 11 11 11 11 11 12 12 13 13 13 14 14 14 15 15 15
2 4 5 5 5 6 6 6 6 6 7 7 7 8 8 9 9 9 9 10 11 11 12 12 12 11 11 11 11 12 12 12 12 13 14 14 14 14 14 15 15 16 16
4 5 6 6 6 7 7 8 8 8 8 8 8 9 9 10 10 10 10 10 10 10 11 12 12 12 12 12 12 12 13 13 14 14 14 14 14 14 15 15 15 15 15
5 6 7 7 8 9 9 9 10 9 9 9 9 9 10 10 11 11 11 11 12 12 12 13 13 14 14 13 13 13 13 13 14 13 13 14 14 14 14 14 14 15 15
7 7 8 8 9 10 10 10 10 9 9 9 9 10 10 11 12 12 12 12 13 13 14 14 14 14 14 14 13 13 13 13 14 14 13 13 13 13 13 14 14 15 15
10 9 10 10 10 10 11 11 10 9 10 10 11 11 11 12 13 13 14 14 14 14 14 14 14 15 14 14 14 14 14 15 15 14 14 14 14 14 14 14 14 15 15
13 13 12 12 12 11 11 11 11 11 11 12 12 12 13 13 14 15 15 15 15 15 15 15 15 16 16 16 16 16 16 16 16 16 15 15 15 15 15 15 15 15 16
15 15 14 14 14 13 13 13 13 13 13 13 13 13 14 14 15 15 16 16 16 16 16 17 17 17 17 18 18 18 18 18 18 17 17 17 17 17 17 17 17 16 17
16 16 16 16 15 15 15 16 16 15 15 15 15 15 16 16 17 17 17 17 17 17 17 18 18 18 18 19 20 19 19 19 19 19 19 19 19 19 19 18 18 17 17
18 18 18 17 17 17 17 17 18 18 17 17 16 17 18 18 19 19 18 18 18 19 19 19 20 20 20 20 20 21 20 20 20 20 20 20 20 20 20 20 19 19 19
19 19 20 20 19 19 19 19 19 19 19 19 19 19 20 21 21 21 21 21 21 21 21 22 22 21 21 22 22 22 22 23 22 21 21 21 21 21 21 21 21 21 20
22 22 22 22 22 21 21 22 22 22 22 21 22 22 23 23 23 23 24 24 24 24 24 24 24 23 24 24 24 24 24 23 23 23 23 22 22 22 22 22 22 22 21
25 25 24 24 24 24 24 23 24 25 24 24 24 24 25 25 26 26 26 26 27 27 27 26 26 25 25 25 25 24 24 24 24 23 24 24 24 23 23 23 23 23 22
27 27 26 26 27 27 26 27 27 27 27 27 27 27 27 27 28 28 28 28 28 28 28 27 27 27 26 26 26 26 25 26 26 26 26 26 26 25 25 25 24 24 24
28 27 27 28 28 28 28 28 28 28 28 29 29 30 30 29 29 29 29 28 28 29 29 29 29 29 28 29 29 28 28 28 28 28 28 27 26 26 26 27 27 27 27
30 30 30 30 29 30 30 30 30 31 31 31 32 32 32 31 31 31 31 31 31 31 30 31 31 30 31 31 31 31 31 31 30 30 30 29 28 28 28 28 29 29 29
32 31 31 31 31 31 32 32 33 34 33 33 33 33 33 32 32 33 33 33 33 33 32 32 32 33 33 33 33 33 33 33 33 32 31 31 31 31 31 30 29 30 30
34 33 32 32 33 33 33 33 34 35 36 35 35 35 34 33 33 34 34 34 34 34 34 34 34 33 34 35 36 36 35 35 34 33 33 33 33 33 32 31 31 31 30
34 33 33 34 34 34 34 35 36 36 37 36 36 36 36 35 35 35 36 36 35 35 36 36 36 35 36 36 36 37 37 36 36 35 34 34 34 34 34 33 33 32 32

GEFSMA_500_meanwind_240.txt.gz
Wind_Speed
3 2 2 1 1 0 0 1 1 2 2 2 2 2 2 3 3 3 3 3 4 4 5 6 6 7 7 7 7 7 8 8 8 8 8 8 8 8 8 9 9 9 9
2 2 1 1 1 1 1 1 1 1 2 3 3 4 4 4 4 5 5 5 5 5 5 6 7 7 7 8 8 8 9 9 9 9 8 8 8 9 9 10 9 9 10
1 0 1 1 1 1 1 2 2 2 3 3 4 5 5 5 5 5 6 6 6 6 7 7 7 8 8 8 9 9 9 9 9 9 8 8 9 9 9 10 11 11 11
1 0 0 0 0 2 2 3 3 4 5 5 4 5 5 6 6 6 6 6 7 7 8 8 8 8 9 9 9 10 10 10 10 10 10 10 10 10 10 10 11 11 11
1 2 2 1 2 3 3 3 4 5 6 5 5 5 5 6 6 6 6 6 7 8 9 9 9 9 9 9 10 11 11 11 11 11 11 11 11 12 11 11 11 11 11
2 2 2 3 3 4 4 4 4 5 5 6 6 5 5 6 6 6 7 7 8 8 9 9 9 10 10 10 11 11 11 11 10 11 12 12 12 12 11 11 11 11 12
3 3 3 3 4 4 5 5 5 4 5 6 6 5 5 5 6 6 7 7 8 8 8 9 9 10 10 11 11 11 11 10 10 10 11 12 12 12 12 12 12 12 12
3 4 5 5 5 5 5 5 5 5 5 5 5 5 6 6 6 6 7 8 8 8 8 8 9 9 10 10 10 10 10 10 11 11 11 11 12 12 13 13 13 13 13
4 5 6 6 6 7 7 7 6 6 7 7 6 6 6 7 7 7 7 8 8 9 9 8 8 8 10 10 10 11 10 10 11 12 12 12 13 13 13 13 14 14 14
6 6 7 7 7 7 8 8 8 8 8 8 7 7 8 8 8 8 8 8 9 9 10 9 9 9 10 11 11 11 11 11 11 12 12 12 13 13 13 14 14 14 14
7 7 8 8 8 9 9 9 9 9 9 9 9 9 9 9 10 10 10 10 11 11 11 10 10 11 12 12 12 12 11 11 12 12 13 13 13 14 14 13 13 13 14
9 9 10 10 10 10 10 10 10 10 10 11 11 10 11 11 11 12 11 11 11 12 12 12 12 13 14 13 13 13 12 13 13 13 13 13 14 14 14 14 14 14 14
11 11 12 12 12 12 11 11 11 11 11 12 12 13 13 13 13 13 13 12 12 13 13 13 13 14 14 14 14 14 13 14 14 14 14 15 15 15 15 15 15 15 15
12 13 13 14 13 13 12 12 13 13 13 13 13 14 14 14 13 13 14 14 14 14 14 14 14 14 14 15 14 15 15 15 15 16 16 17 17 17 16 16 16 16 16
14 14 15 15 15 15 14 14 14 14 14 14 14 14 15 15 15 15 15 15 16 16 16 15 15 15 15 15 16 17 17 17 18 18 18 18 19 18 18 18 17 17 17
16 16 17 16 16 16 16 16 16 15 16 16 16 16 16 16 16 16 16 16 17 16 17 17 17 17 17 17 17 18 19 20 20 20 20 20 20 20 20 19 19 19 19
18 18 19 18 17 17 18 18 17 17 17 17 18 18 18 18 18 18 18 19 19 19 19 19 19 19 20 20 20 21 21 21 21 21 22 22 21 21 21 21 21 21 21
21 21 21 20 19 20 20 20 20 19 19 19 20 20 20 21 21 21 21 21 22 21 21 21 21 21 22 22 22 23 23 23 23 23 23 23 22 22 22 22 23 22 22
23 23 23 22 23 23 22 22 22 22 23 23 23 23 23 23 23 23 23 23 24 24 24 24 23 23 23 23 24 24 23 23 23 23 23 23 23 23 23 24 24 24 23
26 25 25 25 25 24 24 24 24 25 26 26 26 26 25 25 25 25 25 26 26 26 26 26 26 25 25 25 25 25 24 24 24 24 24 24 24 24 25 25 26 26 25
28 27 27 26 26 26 27 27 27 27 27 27 27 27 27 27 27 28 28 28 28 28 28 28 27 27 27 27 27 26 26 26 26 26 26 26 26 26 26 27 27 27 27
29 28 28 28 28 28 29 29 30 29 29 29 29 29 29 29 30 29 29 28 29 29 30 30 29 29 28 29 29 28 28 28 28 28 29 29 29 28 29 29 29 28 28
30 28 28 29 30 31 31 31 31 31 31 31 31 31 31 31 32 32 31 31 32 32 32 32 31 32 31 31 31 31 31 31 31 31 31 31 31 30 30 30 30 30 30
32 31 30 30 31 32 32 32 32 33 32 32 32 32 32 33 33 34 34 34 33 33 33 33 33 34 34 33 33 33 33 33 33 33 33 32 32 32 31 31 30 30 30
34 33 32 32 32 33 33 33 34 33 34 34 34 34 34 35 35 35 35 34 34 34 34 35 35 35 34 35 35 35 35 35 35 35 34 33 33 33 32 31 31 31 31
36 34 33 33 33 32 33 34 35 35 35 35 36 35 36 36 36 36 36 35 35 35 36 36 36 36 36 36 36 36 36 36 36 35 34 34 33 33 32 32 32 32 31

GEFSMA_500_meanwind_246.txt.gz
Wind_Speed
3 3 3 2 2 2 2 1 0 1 1 1 1 1 2 3 3 3 3 4 5 4 4 4 4 4 4 4 5 5 5 6 6 6 6 7 7 7 7 8 8 9 9
3 2 2 2 2 2 2 1 1 1 1 2 2 3 4 4 5 5 5 4 4 5 5 5 5 5 5 6 6 6 6 7 7 7 7 7 7 6 7 8 8 9 9
3 3 3 3 2 2 1 1 1 1 2 3 3 4 5 6 6 5 5 5 5 5 6 6 5 6 6 6 7 6 7 7 8 8 8 8 7 7 8 9 9 9 10
3 3 3 3 2 1 1 1 2 2 3 3 4 4 5 6 6 5 6 6 6 6 6 6 7 7 7 7 8 8 8 8 8 8 8 9 9 9 9 10 10 10 10
3 3 2 2 1 1 1 2 2 3 3 3 4 5 4 4 5 6 5 5 6 6 6 7 7 8 8 8 8 8 9 9 9 8 8 9 9 9 10 10 10 10 10
4 3 2 1 1 2 2 3 2 3 3 3 3 4 3 3 4 4 5 5 6 6 6 7 7 7 8 8 8 9 9 9 9 9 9 9 9 10 10 10 10 10 11
2 2 2 2 2 2 2 2 2 3 3 3 4 4 3 3 3 3 4 5 6 6 7 7 7 7 8 8 8 8 9 9 9 9 10 10 10 10 10 10 10 11 11
1 1 2 2 2 2 2 3 3 3 3 4 4 4 4 4 4 4 4 5 5 6 7 7 7 7 7 8 8 8 9 9 9 9 9 10 10 10 11 11 11 11 11
1 1 2 3 3 3 3 3 4 4 4 5 5 5 5 5 5 5 5 6 6 7 7 7 7 8 8 8 9 9 10 10 9 9 9 10 10 10 10 11 11 12 12
3 3 4 4 4 4 4 5 5 5 5 5 5 5 6 7 7 7 7 7 7 8 8 8 8 9 10 10 10 10 10 10 10 11 11 11 11 11 11 11 12 12 12
4 4 5 6 6 6 6 6 6 6 6 6 7 7 7 7 8 9 9 9 9 9 10 10 10 11 11 11 11 11 12 12 11 12 12 11 12 12 13 13 13 13 13
5 6 7 7 8 8 8 8 8 8 8 8 8 8 8 9 9 10 10 10 10 11 12 12 12 12 12 12 12 13 13 13 12 13 13 13 14 14 14 14 14 14 14
7 7 8 9 9 10 10 10 10 10 9 9 10 10 11 11 11 11 10 10 11 12 13 13 14 14 14 14 14 14 14 14 14 14 14 14 15 15 15 15 15 15 15
9 9 10 10 11 11 11 11 11 11 12 12 12 12 12 13 13 12 11 12 13 13 14 14 14 15 15 15 15 15 15 15 14 14 14 15 15 16 16 16 16 17 17
11 11 12 13 13 13 13 13 13 13 14 14 14 13 13 13 13 13 13 13 13 14 14 14 15 15 15 15 16 16 16 16 16 16 16 16 16 16 17 17 18 18 19
13 13 14 15 15 15 15 15 14 14 14 14 14 14 15 15 14 14 14 14 15 15 16 16 17 17 17 17 17 17 17 17 18 18 18 18 17 18 18 19 19 20 20
16 16 17 16 16 17 17 17 16 16 16 16 16 16 17 17 17 17 17 18 18 18 18 18 18 18 18 18 18 18 18 18 19 20 19 19 19 20 20 21 21 21 21
19 19 19 19 18 19 19 19 18 18 18 18 18 18 19 19 18 18 19 20 20 21 21 20 20 20 20 19 19 19 20 20 21 21 21 21 21 22 23 23 24 23 24
22 22 22 22 22 21 21 20 19 19 20 20 19 19 19 19 19 19 20 21 22 23 23 23 22 22 22 21 22 22 22 22 23 23 23 23 24 24 24 24 25 25 25
24 24 24 24 24 23 22 22 21 21 21 21 21 21 21 21 22 22 23 24 24 25 25 25 25 25 24 25 24 24 24 24 24 24 24 24 24 25 25 26 26 26 27
26 26 26 25 25 24 24 23 23 23 22 22 23 23 24 24 25 26 26 27 27 27 27 28 28 27 26 27 27 26 26 26 25 25 25 25 26 26 27 27 27 27 27
28 28 27 26 26 25 25 24 25 25 25 25 25 25 26 26 27 28 28 29 28 29 29 29 29 28 28 28 29 28 28 28 27 27 28 28 28 29 29 29 29 29 28
28 28 28 27 27 27 27 26 27 27 27 27 27 27 28 28 29 29 30 30 29 29 29 29 30 29 30 30 30 30 30 30 30 30 30 30 30 31 31 31 31 30 30
30 29 29 29 29 29 29 28 28 28 28 29 29 29 29 29 29 30 30 30 30 30 31 31 31 30 30 31 32 32 32 32 33 32 33 33 32 32 32 32 31 31 31
32 32 32 31 31 31 31 30 30 30 30 30 30 30 29 30 30 31 31 31 31 31 32 32 31 31 31 32 33 34 34 34 34 34 34 34 34 34 33 32 32 32 32
34 33 33 33 32 32 32 32 33 33 32 32 32 32 32 32 32 32 32 32 32 32 32 32 32 32 33 34 35 35 35 35 35 34 35 35 34 34 33 33 33 33 33

GEFSMA_500_meanwind_252.txt.gz
Wind_Speed
4 3 2 1 1 1 0 0 1 1 2 2 2 3 2 2 3 3 3 4 4 4 5 5 5 5 6 6 6 5 6 6 6 6 6 6 7 7 7 7 7 7 8
3 2 1 1 0 0 0 1 2 2 2 3 3 3 3 4 4 4 5 5 5 5 5 6 6 6 7 7 7 7 7 7 7 7 7 7 7 7 7 7 8 8 8
2 1 1 0 0 0 1 2 2 3 4 4 4 4 4 5 5 6 6 5 5 6 6 6 7 7 7 7 8 8 8 8 8 8 8 8 8 8 8 8 8 9 9
2 1 1 0 1 1 2 2 3 3 4 4 4 5 5 6 6 6 6 6 6 6 7 7 7 8 8 8 8 9 9 9 9 9 9 9 9 9 9 9 9 10 10
2 1 0 1 1 2 3 4 4 4 4 5 5 5 5 5 5 5 6 6 6 7 7 8 8 8 8 8 9 9 10 10 10 10 10 10 10 10 10 10 10 10 11
1 0 1 2 2 3 4 5 5 5 5 5 5 5 5 5 5 5 5 6 7 7 7 8 8 8 8 8 8 9 10 10 10 11 11 11 11 11 11 11 11 11 11
1 1 2 2 3 4 4 5 4 4 5 5 5 6 6 6 5 5 6 6 6 7 7 8 8 8 8 8 9 9 9 10 11 10 10 11 12 12 12 12 12 12 12
2 2 3 3 4 5 5 6 6 6 5 6 6 6 6 7 6 6 6 7 7 8 8 8 8 8 8 9 9 10 10 11 11 11 11 11 11 11 12 12 12 12 12
3 3 4 5 6 6 6 6 7 7 6 6 7 7 7 7 7 7 8 8 8 9 9 9 9 9 10 10 10 11 11 12 12 11 12 11 12 12 12 13 13 13 13
5 5 6 7 7 7 7 7 8 8 8 8 9 9 9 9 8 9 9 9 9 9 10 10 11 12 12 11 12 12 12 12 13 13 13 13 13 13 13 13 13 13 13
6 7 7 8 8 8 8 8 9 9 10 10 11 11 10 10 10 10 10 10 10 11 11 11 11 12 13 13 14 14 14 14 13 14 14 15 15 14 15 15 15 14 14
8 8 9 9 9 10 10 10 10 11 11 11 11 11 12 12 11 11 11 11 12 12 12 13 13 13 14 15 15 16 16 16 16 16 16 15 16 16 16 16 16 16 16
10 10 10 11 11 11 11 11 12 12 11 12 13 13 13 13 13 14 13 13 13 13 14 14 14 15 15 15 16 17 17 17 17 17 17 16 16 16 17 17 17 17 17
12 12 12 12 12 12 13 13 13 13 13 13 13 14 15 15 15 16 15 15 15 15 15 15 15 16 16 16 17 17 17 17 18 18 18 18 18 18 18 18 18 19 19
14 14 14 14 15 15 15 15 15 14 15 15 15 16 17 17 17 18 17 17 17 17 16 16 16 17 17 17 18 18 18 19 19 19 19 20 20 20 20 20 19 20 20
17 17 17 17 17 17 17 17 16 16 17 17 18 18 18 18 18 19 19 19 19 19 18 18 19 19 19 19 20 20 21 21 21 21 21 22 22 22 22 22 22 22 22
19 20 20 20 20 19 19 19 19 18 18 18 18 18 18 19 19 19 20 21 21 21 21 20 20 20 20 21 21 22 23 23 23 22 23 23 23 23 23 23 24 24 24
21 22 22 22 22 22 22 21 21 20 20 20 20 20 20 20 21 21 20 20 20 21 21 21 21 22 22 23 23 24 25 25 24 24 24 24 24 24 24 25 25 25 25
23 23 23 24 24 24 24 23 23 23 22 22 22 22 22 22 22 21 21 21 21 21 21 22 22 22 23 24 25 25 26 26 26 26 26 26 26 26 26 26 27 27 27
25 25 25 25 25 25 25 26 25 25 24 24 24 24 24 24 24 23 24 24 24 24 24 24 23 24 25 25 26 26 27 27 27 28 28 28 28 27 27 27 27 27 28
27 26 26 26 27 27 27 27 27 27 26 25 25 25 25 25 25 25 26 26 27 27 26 26 26 26 27 27 28 28 27 27 28 28 29 28 28 28 28 28 29 29 29
29 29 28 28 28 28 27 27 27 28 28 27 27 26 26 26 27 27 27 28 28 28 28 29 29 28 28 28 29 29 29 29 29 30 30 30 30 30 30 31 31 31 31
32 31 31 31 30 29 29 29 29 29 29 29 29 28 27 28 28 28 29 30 30 30 30 30 30 30 30 30 30 30 31 30 30 30 31 31 31 31 32 32 32 32 32
34 33 32 32 31 31 31 31 31 31 31 30 30 30 30 30 30 31 31 31 32 32 31 31 31 32 32 32 32 33 32 32 32 32 32 32 33 33 32 33 32 33 33
34 34 33 32 32 32 33 33 33 33 32 31 32 32 32 32 32 33 33 32 32 33 33 32 32 32 33 34 34 34 34 33 33 33 34 34 33 33 33 33 33 33 33
34 34 33 32 32 33 34 35 35 35 35 35 35 35 35 34 34 34 34 34 34 34 33 34 34 34 34 35 35 35 34 34 34 34 34 34 34 34 34 34 34 33 34

GEFSMA_500_meanwind_258.txt.gz
Wind_Speed
5 4 4 3 3 2 2 1 1 1 1 1 0 1 1 1 1 2 2 2 3 4 4 5 5 6 6 5 6 6 6 6 6 6 7 7 6 6 6 6 6 6 7
5 4 4 3 3 2 1 1 0 0 0 1 1 2 2 2 3 3 3 3 3 4 4 5 6 6 6 7 7 7 7 7 7 7 7 8 8 8 7 7 7 8 8
4 3 2 2 2 2 1 0 1 1 1 2 2 3 3 3 4 4 4 4 4 4 5 5 6 7 7 7 7 7 7 7 7 7 8 8 8 8 9 9 9 9 9
3 2 2 2 2 1 0 1 2 2 2 3 3 3 4 4 4 4 4 4 4 5 5 6 6 7 7 7 8 8 8 8 8 8 8 8 9 9 9 9 9 9 10
2 1 2 1 0 1 1 2 3 3 4 4 4 4 4 4 4 4 5 5 5 5 6 6 6 7 7 7 8 8 8 8 8 9 9 9 10 10 10 10 9 10 10
2 1 1 1 2 3 3 3 4 4 4 4 5 5 5 5 5 5 5 6 6 6 6 6 7 7 7 7 8 7 8 9 10 10 10 11 10 11 11 10 10 10 10
2 1 2 2 3 4 4 4 4 4 5 5 6 5 5 5 5 6 6 7 6 7 7 7 7 7 8 8 8 8 8 9 10 10 10 11 11 11 11 11 11 10 10
3 2 2 3 4 4 4 5 5 5 6 6 6 7 6 7 7 7 7 7 7 7 7 7 8 8 8 8 8 8 9 10 10 11 11 12 12 12 12 12 11 11 11
4 4 4 5 5 5 6 6 6 7 7 7 7 7 7 8 8 9 9 8 8 8 8 8 9 9 9 9 9 10 11 11 11 12 12 13 13 13 13 13 12 12 12
6 5 5 6 6 7 7 8 7 8 8 8 8 8 8 9 9 9 9 9 9 9 9 10 11 10 10 11 11 11 12 12 12 12 12 13 13 13 14 14 14 13 13
7 7 7 7 7 8 8 8 8 9 9 9 9 9 9 10 10 10 10 10 10 10 11 12 12 13 13 13 13 13 13 13 13 13 13 13 14 14 15 15 15 15 15
9 9 9 9 9 9 9 9 10 10 10 10 10 10 10 10 11 11 12 12 12 12 13 14 14 15 15 15 15 15 15 15 15 14 14 14 15 16 16 16 16 16 17
11 11 11 11 11 11 11 11 11 11 11 11 12 11 11 11 12 13 13 13 13 14 14 15 15 16 16 16 16 16 16 16 16 16 16 17 17 17 17 18 18 18 18
13 13 13 13 14 14 14 13 13 13 13 13 12 13 13 14 14 14 15 15 15 15 16 16 17 17 17 17 17 17 17 17 17 18 18 19 19 20 19 19 19 20 20
15 14 15 15 16 16 16 16 15 15 15 14 15 15 15 15 16 15 16 16 16 16 16 17 18 18 18 18 19 20 20 20 20 20 20 21 20 20 20 20 21 21 21
17 17 17 17 18 19 19 18 17 17 17 17 17 17 18 18 17 17 17 18 18 18 17 18 18 18 19 20 21 21 22 22 22 22 22 22 22 22 22 23 23 23 23
20 20 20 20 20 20 20 20 20 20 20 19 19 19 19 19 20 20 20 20 19 19 19 20 20 20 21 21 22 23 24 24 24 24 24 24 24 24 24 24 25 26 26
22 22 22 22 22 22 22 22 22 22 22 21 21 21 21 22 21 21 21 21 21 20 21 22 22 22 22 23 23 24 25 25 25 25 25 25 26 26 26 26 26 27 27
24 25 24 24 24 24 24 24 24 25 24 23 23 23 23 23 23 23 22 22 23 23 23 24 24 24 24 24 25 25 25 25 25 26 26 27 27 28 27 27 27 27 27
26 26 27 27 26 26 26 26 26 25 25 24 24 24 25 24 24 24 24 24 25 25 25 26 26 26 26 26 27 27 26 26 27 27 28 28 28 29 29 28 27 27 27
27 28 28 29 28 28 28 28 28 28 27 26 26 27 26 26 26 26 26 27 27 28 28 28 28 28 28 28 28 28 28 29 29 29 30 29 29 29 29 28 28 28 29
30 30 30 30 29 29 29 29 29 29 28 28 28 28 27 27 27 28 28 28 29 30 30 30 30 30 30 30 30 30 31 31 31 31 31 30 30 30 30 29 29 30 30
32 32 32 32 32 31 31 31 31 31 31 31 30 29 29 29 29 29 29 30 31 32 31 32 32 31 31 31 31 32 32 32 33 32 32 31 31 32 31 31 31 31 31
34 34 34 34 34 33 33 32 32 32 32 31 31 31 30 31 31 32 32 32 32 32 32 32 32 33 33 33 33 33 33 33 33 33 33 32 32 33 32 31 31 31 31
36 36 35 35 35 35 34 34 34 34 33 33 33 32 33 32 33 34 34 34 34 33 34 33 33 33 34 34 34 34 35 35 35 34 34 34 34 34 33 32 32 32 33
37 37 37 37 37 36 35 35 35 35 34 34 34 34 34 35 35 36 36 36 35 35 35 35 35 35 35 35 36 36 35 35 35 35 35 35 34 34 33 33 33 33 33

GEFSMA_500_meanwind_264.txt.gz
Wind_Speed
0 1 1 1 1 1 2 2 2 1 1 1 0 1 2 3 3 2 2 2 3 4 4 4 5 5 5 5 6 6 6 6 6 6 6 6 6 5 6 7 6 6 6
1 2 2 2 1 1 2 1 1 1 1 1 1 2 2 3 3 3 2 2 3 4 5 5 5 6 5 5 6 6 6 6 6 7 7 7 6 6 7 7 7 7 7
1 2 3 2 2 2 2 2 1 1 1 2 2 2 3 4 4 3 3 3 4 4 5 5 5 6 5 6 6 6 6 6 6 7 8 7 7 8 7 8 8 8 8
1 2 2 2 2 2 3 2 3 3 3 3 3 3 4 4 4 4 4 4 4 5 5 5 5 6 6 6 6 6 7 7 8 8 8 8 8 8 8 9 9 9 9
1 2 3 2 2 3 3 4 5 4 4 4 4 4 5 4 4 4 4 4 5 5 5 6 6 6 6 6 7 8 8 8 8 8 8 8 8 9 9 8 9 10 10
1 2 3 3 3 4 4 5 6 6 6 6 5 6 6 5 6 6 6 6 5 5 5 6 6 7 7 7 7 8 9 8 8 8 8 8 9 9 9 9 9 9 10
2 2 2 3 4 5 6 6 7 7 7 7 7 8 7 6 7 7 7 7 7 7 7 7 7 7 7 7 7 8 7 7 8 8 9 9 9 9 10 10 10 10 10
3 3 3 4 5 6 7 7 7 7 7 8 8 8 7 7 7 8 8 8 7 8 8 8 8 8 8 8 8 9 8 9 9 10 10 10 10 10 11 11 11 12 12
4 4 5 6 7 7 8 8 8 9 8 8 8 8 7 7 7 8 8 8 7 8 8 8 9 9 9 9 8 9 10 10 11 11 11 11 12 12 12 12 13 13 13
6 6 7 7 8 8 9 8 9 9 8 8 8 8 8 9 8 9 9 9 8 8 8 9 9 10 10 9 10 10 11 11 12 12 12 12 12 12 13 13 14 14 14
7 8 8 9 9 9 10 9 9 9 9 9 9 9 10 10 10 10 10 9 9 9 10 11 10 10 11 11 11 12 13 13 13 13 13 13 13 13 14 15 15 15 15
9 9 10 11 11 10 10 11 11 11 12 11 11 11 11 12 11 11 11 10 10 11 11 12 12 12 12 12 13 13 13 13 14 14 14 15 15 15 16 16 16 16 17
11 11 11 12 12 11 11 12 12 13 13 13 13 13 13 13 13 12 12 12 12 13 13 13 13 13 13 13 13 13 14 14 15 15 16 17 17 17 17 18 18 18 18
13 13 13 13 14 13 13 14 14 14 15 15 15 16 15 14 14 15 14 14 14 14 15 15 15 14 14 15 14 14 15 16 16 17 18 19 19 19 19 19 19 19 20
15 15 15 15 15 15 15 16 16 16 16 16 17 17 17 17 17 17 17 16 16 16 16 16 15 16 16 15 16 16 17 17 18 19 20 20 20 20 20 20 20 20 21
17 17 17 17 17 17 17 17 17 17 17 18 18 19 19 19 19 19 19 19 19 18 18 18 18 18 18 17 18 18 18 19 20 20 20 21 21 21 22 23 23 23 23
19 20 20 20 20 20 20 20 20 20 20 21 21 21 21 21 21 21 21 21 21 20 20 20 20 19 20 20 20 20 20 21 21 22 23 23 24 24 24 24 25 25 24
20 21 21 22 23 23 23 22 22 22 23 23 23 23 23 23 23 23 22 22 22 22 22 21 22 22 22 22 23 23 23 24 24 24 25 25 26 26 26 26 26 26 26
22 23 23 23 23 24 25 25 25 25 25 25 25 25 24 24 24 24 24 24 23 23 23 23 23 23 24 24 25 25 26 26 26 26 27 27 27 28 28 28 27 27 27
24 24 24 24 25 25 26 26 27 27 27 27 27 26 26 26 26 25 25 25 25 25 25 25 25 25 25 26 27 27 27 28 28 29 29 29 29 29 29 29 29 29 28
27 27 27 26 27 27 27 28 28 28 28 28 28 28 28 27 27 27 27 27 27 27 28 27 27 27 27 27 28 28 29 29 30 30 30 30 30 30 30 30 30 30 29
30 30 29 28 29 29 29 29 30 30 30 29 29 29 29 28 28 28 29 29 29 28 28 28 27 28 28 29 30 30 30 30 30 31 31 31 31 31 31 31 31 30 30
32 32 31 30 31 31 31 31 31 31 31 31 31 30 30 30 30 30 30 30 30 29 29 29 29 29 30 30 31 31 31 32 32 32 32 31 32 32 32 31 30 30 31
35 34 33 33 33 33 33 33 32 33 33 32 32 32 32 32 32 32 32 31 31 31 32 31 31 31 32 32 32 33 34 34 34 33 33 33 32 33 32 31 31 31 30
36 35 35 35 35 35 34 33 34 34 34 34 33 34 34 33 33 34 33 33 32 33 33 33 33 33 33 34 34 34 35 35 34 33 33 33 32 32 32 31 30 29 29
38 38 37 36 36 36 36 36 36 35 35 34 34 34 34 34 35 34 34 34 34 34 34 34 34 34 34 34 34 35 35 35 34 34 34 33 32 32 31 31 30 29 28